Time,TemperatureF,DewpointF,PressureIn,WindDirection,WindDirectionDegrees,WindSpeedMPH,WindSpeedGustMPH,Humidity,HourlyPrecipIn,Conditions,Clouds,dailyrainin,SolarRadiationWatts/m^2,SoftwareType,DateUTC
2013-11-23 00:08:00,33.3,29.0,30.45,ENE,78,0.0,4.0,85,0.00,,,0.02,0,weatherlink.com 1.10,2013-11-23 05:08:00,
2013-11-23 00:23:00,33.1,29.0,30.44,ENE,77,0.0,2.0,85,0.00,,,0.02,0,weatherlink.com 1.10,2013-11-23 05:23:00,
2013-11-23 00:38:00,32.8,29.0,30.45,East,84,1.0,4.0,85,0.00,,,0.02,0,weatherlink.com 1.10,2013-11-23 05:38:00,
2013-11-23 00:53:00,32.3,28.0,30.45,NE,55,0.0,7.0,85,0.00,,,0.02,0,weatherlink.com 1.10,2013-11-23 05:53:00,
2013-11-23 01:08:00,31.6,28.0,30.45,NE,55,0.0,1.0,86,0.00,,,0.02,0,weatherlink.com 1.10,2013-11-23 06:08:00,
2013-11-23 01:23:00,31.1,27.0,30.45,NNW,339,0.0,4.0,86,0.00,,,0.02,0,weatherlink.com 1.10,2013-11-23 06:23:00,
2013-11-23 01:38:00,30.6,27.0,30.44,North,9,0.0,0.0,87,0.00,,,0.02,0,weatherlink.com 1.10,2013-11-23 06:38:00,
2013-11-23 01:53:00,30.1,27.0,30.44,North,9,0.0,0.0,87,0.00,,,0.02,0,weatherlink.com 1.10,2013-11-23 06:53:00,
2013-11-23 02:08:00,29.7,27.0,30.44,North,9,0.0,0.0,88,0.00,,,0.02,0,weatherlink.com 1.10,2013-11-23 07:08:00,
2013-11-23 02:23:00,29.3,27.0,30.44,NE,44,0.0,4.0,89,0.00,,,0.02,0,weatherlink.com 1.10,2013-11-23 07:23:00,
2013-11-23 02:38:00,29.0,26.0,30.45,NE,44,0.0,0.0,89,0.00,,,0.02,0,weatherlink.com 1.10,2013-11-23 07:38:00,
2013-11-23 02:53:00,28.9,26.0,30.45,NNW,335,0.0,4.0,90,0.00,,,0.02,0,weatherlink.com 1.10,2013-11-23 07:53:00,
2013-11-23 03:08:00,28.7,26.0,30.45,NNW,335,0.0,0.0,89,0.00,,,0.02,0,weatherlink.com 1.10,2013-11-23 08:08:00,
2013-11-23 03:23:00,28.5,26.0,30.45,NNW,335,0.0,1.0,90,0.00,,,0.02,0,weatherlink.com 1.10,2013-11-23 08:23:00,
2013-11-23 03:38:00,28.6,26.0,30.45,ENE,60,0.0,2.0,90,0.00,,,0.02,0,weatherlink.com 1.10,2013-11-23 08:38:00,
2013-11-23 03:53:00,28.8,26.0,30.45,NNE,31,0.0,4.0,90,0.00,,,0.02,0,weatherlink.com 1.10,2013-11-23 08:53:00,
2013-11-23 04:08:00,28.9,26.0,30.46,ENE,65,0.0,2.0,90,0.00,,,0.02,0,weatherlink.com 1.10,2013-11-23 09:08:00,
2013-11-23 04:23:00,28.8,26.0,30.45,ENE,65,0.0,1.0,89,0.00,,,0.02,0,weatherlink.com 1.10,2013-11-23 09:23:00,
2013-11-23 04:38:00,28.6,26.0,30.45,North,11,0.0,4.0,90,0.00,,,0.02,0,weatherlink.com 1.10,2013-11-23 09:38:00,
2013-11-23 04:53:00,28.4,26.0,30.45,North,11,0.0,1.0,90,0.00,,,0.02,0,weatherlink.com 1.10,2013-11-23 09:53:00,
2013-11-23 05:08:00,28.1,26.0,30.46,North,11,0.0,0.0,90,0.00,,,0.02,0,weatherlink.com 1.10,2013-11-23 10:08:00,
2013-11-23 05:24:00,27.9,25.0,30.46,North,11,0.0,2.0,90,0.00,,,0.02,0,weatherlink.com 1.10,2013-11-23 10:24:00,
2013-11-23 05:39:00,27.8,25.0,30.46,NNW,344,0.0,0.0,90,0.00,,,0.02,0,weatherlink.com 1.10,2013-11-23 10:39:00,
2013-11-23 05:54:00,27.4,25.0,30.46,NNW,344,0.0,2.0,90,0.00,,,0.00,0,weatherlink.com 1.10,2013-11-23 10:54:00,
2013-11-23 06:09:00,27.2,25.0,30.46,NNW,344,0.0,1.0,91,0.00,,,0.00,0,weatherlink.com 1.10,2013-11-23 11:09:00,
2013-11-23 06:24:00,27.0,25.0,30.46,NNW,344,0.0,1.0,91,0.00,,,0.00,0,weatherlink.com 1.10,2013-11-23 11:24:00,
2013-11-23 06:39:00,26.8,25.0,30.46,NW,315,0.0,2.0,91,0.00,,,0.00,0,weatherlink.com 1.10,2013-11-23 11:39:00,
2013-11-23 06:54:00,26.7,25.0,30.46,WNW,303,0.0,4.0,91,0.00,,,0.00,0,weatherlink.com 1.10,2013-11-23 11:54:00,
2013-11-23 07:09:00,26.6,24.0,30.48,NW,314,1.0,5.0,91,0.00,,,0.00,0,weatherlink.com 1.10,2013-11-23 12:09:00,
2013-11-23 07:24:00,26.8,25.0,30.47,NW,314,0.0,1.0,91,0.00,,,0.00,0,weatherlink.com 1.10,2013-11-23 12:24:00,
2013-11-23 07:39:00,26.7,25.0,30.48,WNW,298,0.0,4.0,91,0.00,,,0.00,5,weatherlink.com 1.10,2013-11-23 12:39:00,
2013-11-23 07:54:00,26.8,24.0,30.48,NW,311,0.0,5.0,90,0.00,,,0.00,11,weatherlink.com 1.10,2013-11-23 12:54:00,
2013-11-23 08:09:00,26.6,24.0,30.47,NW,311,0.0,2.0,90,0.00,,,0.00,25,weatherlink.com 1.10,2013-11-23 13:09:00,
2013-11-23 08:24:00,26.6,24.0,30.49,NW,304,0.0,2.0,89,0.00,,,0.00,37,weatherlink.com 1.10,2013-11-23 13:24:00,
2013-11-23 08:39:00,26.8,24.0,30.48,West,279,4.0,7.0,90,0.00,,,0.00,56,weatherlink.com 1.10,2013-11-23 13:39:00,
2013-11-23 08:54:00,27.1,24.0,30.48,NW,306,4.0,8.0,89,0.00,,,0.00,88,weatherlink.com 1.10,2013-11-23 13:54:00,
2013-11-23 09:09:00,27.5,24.0,30.49,West,269,2.0,8.0,87,0.00,,,0.00,113,weatherlink.com 1.10,2013-11-23 14:09:00,
2013-11-23 09:24:00,27.8,24.0,30.48,NW,316,6.0,8.0,84,0.00,,,0.00,100,weatherlink.com 1.10,2013-11-23 14:24:00,
2013-11-23 09:39:00,28.0,23.0,30.48,NW,308,4.0,6.0,82,0.00,,,0.00,113,weatherlink.com 1.10,2013-11-23 14:39:00,
2013-11-23 09:54:00,28.4,23.0,30.49,NW,323,0.0,7.0,81,0.00,,,0.00,130,weatherlink.com 1.10,2013-11-23 14:54:00,
2013-11-23 10:09:00,28.5,22.0,30.50,WNW,295,3.0,8.0,76,0.00,,,0.00,163,weatherlink.com 1.10,2013-11-23 15:09:00,
2013-11-23 10:24:00,28.9,23.0,30.49,NW,309,1.0,7.0,77,0.00,,,0.00,171,weatherlink.com 1.10,2013-11-23 15:24:00,
2013-11-23 10:39:00,29.1,21.0,30.50,North,5,2.0,11.0,73,0.00,,,0.00,221,weatherlink.com 1.10,2013-11-23 15:39:00,
2013-11-23 10:54:00,29.2,21.0,30.50,ESE,110,0.0,9.0,72,0.00,,,0.00,197,weatherlink.com 1.10,2013-11-23 15:54:00,
2013-11-23 11:09:00,28.6,21.0,30.50,NNW,330,0.0,8.0,73,0.00,,,0.00,142,weatherlink.com 1.10,2013-11-23 16:09:00,
2013-11-23 11:24:00,28.5,21.0,30.50,WNW,293,5.0,9.0,74,0.00,,,0.00,230,weatherlink.com 1.10,2013-11-23 16:24:00,
2013-11-23 11:39:00,29.2,23.0,30.50,North,355,1.0,9.0,76,0.00,,,0.00,339,weatherlink.com 1.10,2013-11-23 16:39:00,
2013-11-23 11:54:00,31.0,24.0,30.49,ENE,66,2.0,11.0,74,0.00,,,0.00,645,weatherlink.com 1.10,2013-11-23 16:54:00,
2013-11-23 12:10:00,31.9,23.0,30.49,NE,51,6.0,10.0,70,0.00,,,0.00,383,weatherlink.com 1.10,2013-11-23 17:10:00,
2013-11-23 12:25:00,32.9,23.0,30.49,WNW,289,1.0,14.0,67,0.00,,,0.00,624,weatherlink.com 1.10,2013-11-23 17:25:00,
2013-11-23 12:40:00,32.8,23.0,30.49,NW,316,7.0,10.0,67,0.00,,,0.00,631,weatherlink.com 1.10,2013-11-23 17:40:00,
2013-11-23 12:55:00,32.0,21.0,30.49,NNE,31,1.0,9.0,65,0.00,,,0.00,232,weatherlink.com 1.10,2013-11-23 17:55:00,
2013-11-23 13:10:00,32.3,20.0,30.49,NNW,335,3.0,11.0,60,0.00,,,0.00,316,weatherlink.com 1.10,2013-11-23 18:10:00,
2013-11-23 13:25:00,32.1,21.0,30.50,WNW,284,7.0,8.0,65,0.00,,,0.00,190,weatherlink.com 1.10,2013-11-23 18:25:00,
2013-11-23 13:40:00,31.2,20.0,30.50,NW,315,5.0,14.0,63,0.00,,,0.00,480,weatherlink.com 1.10,2013-11-23 18:40:00,
2013-11-23 13:55:00,32.6,21.0,30.50,NW,317,7.0,10.0,62,0.00,,,0.00,107,weatherlink.com 1.10,2013-11-23 18:55:00,
2013-11-23 14:10:00,32.5,21.0,30.50,ENE,66,4.0,15.0,63,0.00,,,0.00,591,weatherlink.com 1.10,2013-11-23 19:10:00,
2013-11-23 14:25:00,32.8,21.0,30.51,East,80,3.0,9.0,61,0.00,,,0.00,163,weatherlink.com 1.10,2013-11-23 19:25:00,
2013-11-23 14:40:00,31.2,19.0,30.52,NNW,340,1.0,11.0,61,0.00,,,0.00,555,weatherlink.com 1.10,2013-11-23 19:40:00,
2013-11-23 14:55:00,31.6,18.0,30.52,ENE,69,7.0,16.0,57,0.00,,,0.00,156,weatherlink.com 1.10,2013-11-23 19:55:00,
2013-11-23 15:10:00,31.5,19.0,30.53,East,88,1.0,9.0,59,0.00,,,0.00,381,weatherlink.com 1.10,2013-11-23 20:10:00,
2013-11-23 15:25:00,29.9,18.0,30.53,NE,40,1.0,9.0,61,0.00,,,0.00,77,weatherlink.com 1.10,2013-11-23 20:25:00,
2013-11-23 15:40:00,29.2,18.0,30.54,North,5,4.0,7.0,63,0.00,,,0.00,211,weatherlink.com 1.10,2013-11-23 20:40:00,
2013-11-23 15:55:00,29.0,17.0,30.55,WNW,292,4.0,11.0,62,0.00,,,0.00,100,weatherlink.com 1.10,2013-11-23 20:55:00,
2013-11-23 16:10:00,28.2,17.0,30.55,NE,46,2.0,7.0,63,0.00,,,0.00,46,weatherlink.com 1.10,2013-11-23 21:10:00,
2013-11-23 16:25:00,27.6,17.0,30.56,NE,34,0.0,5.0,64,0.00,,,0.00,14,weatherlink.com 1.10,2013-11-23 21:25:00,
2013-11-23 16:40:00,26.9,17.0,30.57,SW,222,2.0,6.0,65,0.00,,,0.00,14,weatherlink.com 1.10,2013-11-23 21:40:00,
2013-11-23 16:55:00,26.4,16.0,30.57,ENE,58,1.0,8.0,64,0.00,,,0.00,9,weatherlink.com 1.10,2013-11-23 21:55:00,
2013-11-23 17:10:00,26.0,16.0,30.57,ESE,111,0.0,11.0,65,0.00,,,0.00,7,weatherlink.com 1.10,2013-11-23 22:10:00,
2013-11-23 17:25:00,25.6,14.0,30.58,NE,42,2.0,7.0,63,0.00,,,0.00,0,weatherlink.com 1.10,2013-11-23 22:25:00,
2013-11-23 17:40:00,24.7,13.0,30.58,WNW,298,0.0,9.0,62,0.00,,,0.00,0,weatherlink.com 1.10,2013-11-23 22:40:00,
2013-11-23 17:55:00,24.1,13.0,30.59,NW,323,2.0,10.0,64,0.00,,,0.00,0,weatherlink.com 1.10,2013-11-23 22:55:00,
2013-11-23 18:10:00,24.1,14.0,30.59,ENE,63,1.0,7.0,65,0.00,,,0.00,0,weatherlink.com 1.10,2013-11-23 23:10:00,
2013-11-23 18:25:00,24.4,14.0,30.60,ENE,65,2.0,11.0,66,0.00,,,0.00,0,weatherlink.com 1.10,2013-11-23 23:25:00,
2013-11-23 18:40:00,24.3,15.0,30.61,NNE,14,0.0,9.0,68,0.00,,,0.00,0,weatherlink.com 1.10,2013-11-23 23:40:00,
2013-11-23 18:55:00,24.0,14.0,30.61,SW,226,4.0,12.0,66,0.00,,,0.00,0,weatherlink.com 1.10,2013-11-23 23:55:00,
2013-11-23 19:10:00,24.0,14.0,30.62,ESE,107,1.0,7.0,66,0.00,,,0.00,0,weatherlink.com 1.10,2013-11-24 00:10:00,
2013-11-23 19:25:00,23.9,14.0,30.62,East,88,0.0,7.0,65,0.00,,,0.00,0,weatherlink.com 1.10,2013-11-24 00:25:00,
2013-11-23 19:40:00,23.3,13.0,30.62,ENE,76,3.0,9.0,64,0.00,,,0.00,0,weatherlink.com 1.10,2013-11-24 00:40:00,
2013-11-23 19:55:00,23.1,13.0,30.63,ESE,104,4.0,5.0,64,0.00,,,0.00,0,weatherlink.com 1.10,2013-11-24 00:55:00,
2013-11-23 20:10:00,23.0,12.0,30.64,NE,55,1.0,6.0,64,0.00,,,0.00,0,weatherlink.com 1.10,2013-11-24 01:10:00,
2013-11-23 20:25:00,23.0,13.0,30.64,NNE,28,4.0,12.0,65,0.00,,,0.00,0,weatherlink.com 1.10,2013-11-24 01:25:00,
2013-11-23 20:41:00,23.0,12.0,30.65,ENE,75,0.0,10.0,62,0.00,,,0.00,0,weatherlink.com 1.10,2013-11-24 01:41:00,
2013-11-23 20:56:00,22.7,12.0,30.65,NE,45,1.0,11.0,63,0.00,,,0.00,0,weatherlink.com 1.10,2013-11-24 01:56:00,
2013-11-23 21:11:00,22.1,12.0,30.65,ENE,63,0.0,6.0,64,0.00,,,0.00,0,weatherlink.com 1.10,2013-11-24 02:11:00,
2013-11-23 21:26:00,21.6,11.0,30.65,ENE,73,2.0,10.0,65,0.00,,,0.00,0,weatherlink.com 1.10,2013-11-24 02:26:00,
2013-11-23 21:41:00,21.2,11.0,30.66,ENE,66,1.0,8.0,65,0.00,,,0.00,0,weatherlink.com 1.10,2013-11-24 02:41:00,
2013-11-23 21:56:00,20.7,11.0,30.66,ENE,61,1.0,9.0,65,0.00,,,0.00,0,weatherlink.com 1.10,2013-11-24 02:56:00,
2013-11-23 22:11:00,20.4,10.0,30.66,NE,51,0.0,4.0,65,0.00,,,0.00,0,weatherlink.com 1.10,2013-11-24 03:11:00,
2013-11-23 22:26:00,20.0,10.0,30.67,ENE,75,0.0,4.0,66,0.00,,,0.00,0,weatherlink.com 1.10,2013-11-24 03:26:00,
2013-11-23 22:41:00,19.8,10.0,30.67,ENE,58,0.0,4.0,67,0.00,,,0.00,0,weatherlink.com 1.10,2013-11-24 03:41:00,
2013-11-23 22:56:00,19.5,10.0,30.67,NE,46,0.0,6.0,66,0.00,,,0.00,0,weatherlink.com 1.10,2013-11-24 03:56:00,
2013-11-23 23:11:00,19.3,9.0,30.66,NE,51,0.0,7.0,65,0.00,,,0.00,0,weatherlink.com 1.10,2013-11-24 04:11:00,
2013-11-23 23:26:00,19.1,10.0,30.67,ESE,115,0.0,2.0,67,0.00,,,0.00,0,weatherlink.com 1.10,2013-11-24 04:26:00,
2013-11-23 23:41:00,18.7,9.0,30.68,NNW,334,2.0,4.0,67,0.00,,,0.00,0,weatherlink.com 1.10,2013-11-24 04:41:00,
2013-11-23 23:56:00,18.5,9.0,30.68,ENE,75,0.0,4.0,67,0.00,,,0.00,0,weatherlink.com 1.10,2013-11-24 04:56:00,